GW0791 Weather Reports


Display with metric or nautical units.
time (UTC)temp
F
wind
direction
speed
MPH
gust
MPH
rain 1hr
in
rain 24hr
in
rain mn
in
humidity
%
barometer
mb
20260503051508 35 360 0.0 0.0 0.00 0.00 0.00 87 1020.3
20260503050010 36 360 0.0 0.0 0.00 0.00 0.00 87 1020.2
20260503044507 36 360 0.0 0.0 0.00 0.00 0.00 86 1020.3
20260503043002 37 360 0.0 0.0 0.00 0.00 0.00 85 1020.2
20260503041502 37 360 0.0 0.0 0.00 0.00 0.00 84 1020.0
20260503040100 38 360 0.0 1.0 0.00 0.00 0.00 83 1020.0
20260503034558 38 360 0.0 0.0 0.00 0.00 0.00 82 1020.0
20260503033101 39 360 0.0 1.0 0.00 0.00 0.00 82 1020.0
20260503031556 40 360 0.0 0.0 0.00 0.00 0.00 81 1019.9
20260503030055 40 360 0.0 0.0 0.00 0.00 0.00 80 1019.8
20260503024601 41 360 0.0 0.0 0.00 0.00 0.00 79 1019.7
20260503023052 42 360 0.0 0.0 0.00 0.00 0.00 77 1019.5
20260503021557 43 360 0.0 0.0 0.00 0.00 0.00 76 1019.4
20260503020055 44 360 0.0 0.0 0.00 0.00 0.00 74 1019.3
20260503014617 45 360 0.0 0.0 0.00 0.00 0.00 73 1019.1
20260503013044 46 360 0.0 0.0 0.00 0.00 0.00 71 1018.7
20260503011550 47 360 0.0 0.0 0.00 0.00 0.00 69 1018.6
20260503010051 48 360 0.0 0.0 0.00 0.00 0.00 66 1018.4
20260503004554 49 360 0.0 0.0 0.00 0.00 0.00 63 1018.1
20260503003039 51 360 0.0 0.0 0.00 0.00 0.00 62 1018.0
20260503001539 51 360 0.0 0.0 0.00 0.00 0.00 59 1017.7
20260503000041 52 360 0.0 2.0 0.00 0.00 0.00 55 1017.6
20260502234540 53 360 0.0 2.0 0.00 0.00 0.00 54 1017.5
20260502233032 53 360 1.0 4.0 0.00 0.00 0.00 51 1017.4
20260502231531 53 360 0.0 4.0 0.00 0.00 0.00 52 1017.3
20260502230032 54 360 0.0 2.0 0.00 0.00 0.00 48 1017.2
20260502224529 55 208 0.0 3.0 0.00 0.00 0.00 48 1017.2
20260502223034 55 200 0.0 4.0 0.00 0.00 0.00 48 1017.2
20260502221529 55 183 2.0 5.0 0.00 0.00 0.00 45 1017.2
20260502220028 56 360 2.0 5.0 0.00 0.00 0.00 46 1017.0
20260502214529 56 360 2.0 10.0 0.00 0.00 0.00 46 1016.9
20260502213025 56 360 0.0 8.0 0.00 0.00 0.00 47 1017.0
20260502211536 56 360 2.0 8.0 0.00 0.00 0.00 45 1016.7
20260502210025 56 360 1.0 8.0 0.00 0.00 0.00 46 1016.8
20260502204522 57 360 2.0 10.0 0.00 0.00 0.00 45 1016.8
20260502203019 57 360 1.0 5.0 0.00 0.00 0.00 46 1016.9
20260502201519 58 360 3.0 10.0 0.00 0.00 0.00 44 1017.0
20260502200023 57 360 3.0 6.0 0.00 0.00 0.00 47 1017.0
20260502194516 56 360 1.0 5.0 0.00 0.00 0.00 47 1017.2
20260502193013 57 360 0.0 11.0 0.00 0.00 0.00 45 1017.2
20260502191511 58 360 3.0 13.0 0.00 0.00 0.00 43 1017.1
20260502190009 58 360 1.0 7.0 0.00 0.00 0.00 45 1017.4
20260502184508 56 360 1.0 11.0 0.00 0.00 0.00 47 1017.7
20260502183005 55 219 0.0 7.0 0.00 0.00 0.00 48 1017.8
20260502181504 55 214 3.0 7.0 0.00 0.00 0.00 48 1017.8
20260502163057 58 244 4.0 10.0 0.00 0.00 0.00 48 1018.1
20260502161553 56 360 4.0 14.0 0.00 0.00 0.00 46 1018.3
20260502151554 55 281 3.0 10.0 0.00 0.00 0.00 55 1018.6
20260502123028 41 360 1.0 2.0 0.00 0.00 0.00 94 1018.7
20260502121525 39 360 0.0 2.0 0.00 0.00 0.00 94 1018.7
20260502114518 35 360 0.0 0.0 0.00 0.00 0.00 93 1018.5
20260502113018 35 360 0.0 0.0 0.00 0.00 0.00 93 1018.5
20260502111517 34 360 0.0 0.0 0.00 0.00 0.00 93 1018.7
20260502110015 34 360 0.0 0.0 0.00 0.00 0.00 92 1018.5
20260502104520 34 360 0.0 0.0 0.00 0.00 0.00 92 1018.3
20260502103014 34 360 0.0 0.0 0.00 0.00 0.00 92 1018.4
20260502101530 34 360 0.0 0.0 0.00 0.00 0.00 92 1018.4
20260502080109 35 360 0.0 0.0 0.00 0.00 0.00 91 1018.6
20260502070058 36 360 0.0 0.0 0.00 0.00 0.00 90 1018.3
20260502064548 37 360 0.0 0.0 0.00 0.00 0.00 90 1018.5
20260502063144 37 360 0.0 0.0 0.00 0.00 0.00 90 1018.5
20260502061539 37 360 0.0 0.0 0.00 0.00 0.00 89 1018.5
20260502060037 38 360 0.0 0.0 0.00 0.00 0.00 89 1018.8
20260502054507 38 360 0.0 0.0 0.00 0.00 0.00 89 1018.7
20260502053006 39 360 0.0 0.0 0.00 0.00 0.00 88 1018.9